Location: Kershaw
(34.5481°N, 80.5823°W)
Time: 17:20:25
(UTC+00:00)

Transit 2A - Pass Details

Date: 05 October 2022
Orbit: 598 x 959 km, 66.7° (Epoch: 06 December)

Event Time Altitude Azimuth Distance (km) Brightness Sun altitude
Rises 04:24:45 0° 240° (WSW) 2,931 - -58.3°
Reaches altitude 10° 04:27:36 10° 258° (WSW) 1,984 - -58.5°
Maximum altitude 04:30:50 20° 305° (NW) 1,428 - -58.8°
Drops below altitude 10° 04:34:01 10° 353° (N) 1,941 - -59.0°
Sets 04:36:46 0° 11° (N) 2,846 - -59.1°
